TimeCDT,TemperatureF,Dew PointF,Humidity,Sea Level PressureIn,VisibilityMPH,Wind Direction,Wind SpeedMPH,Gust SpeedMPH,PrecipitationIn,Events,Conditions,WindDirDegrees,DateUTC
12:53 AM,44.1,25.0,47,29.90,10.0,NNW,6.9,-,N/A,,Clear,340,2013-04-21 05:53:00
1:53 AM,43.0,26.1,51,29.92,10.0,NW,8.1,-,N/A,,Clear,320,2013-04-21 06:53:00
2:53 AM,43.0,26.1,51,29.92,10.0,NNW,8.1,-,N/A,,Clear,330,2013-04-21 07:53:00
3:53 AM,39.0,26.1,60,29.92,10.0,NW,3.5,-,N/A,,Clear,310,2013-04-21 08:53:00
4:53 AM,39.9,28.0,63,29.94,10.0,NW,8.1,-,N/A,,Clear,310,2013-04-21 09:53:00
5:53 AM,37.9,27.0,65,29.95,10.0,NW,8.1,-,N/A,,Clear,320,2013-04-21 10:53:00
6:53 AM,36.0,27.0,70,29.98,10.0,NW,9.2,-,N/A,,Clear,320,2013-04-21 11:53:00
7:53 AM,37.9,27.0,65,29.99,10.0,NW,10.4,-,N/A,,Clear,320,2013-04-21 12:53:00
8:53 AM,46.9,28.9,50,30.00,10.0,NW,8.1,-,N/A,,Clear,320,2013-04-21 13:53:00
9:53 AM,59.0,27.0,29,29.99,10.0,NNW,5.8,-,N/A,,Clear,330,2013-04-21 14:53:00
10:53 AM,63.0,23.0,22,29.99,10.0,Calm,Calm,-,N/A,,Clear,0,2013-04-21 15:53:00
11:53 AM,66.0,24.1,20,29.98,10.0,Calm,Calm,-,N/A,,Clear,0,2013-04-21 16:53:00
12:53 PM,68.0,24.1,19,29.99,10.0,Calm,Calm,-,N/A,,Clear,0,2013-04-21 17:53:00
1:53 PM,70.0,24.1,18,29.94,10.0,SE,5.8,-,N/A,,Clear,130,2013-04-21 18:53:00
2:53 PM,70.0,21.0,16,29.93,10.0,Calm,Calm,-,N/A,,Clear,0,2013-04-21 19:53:00
3:53 PM,73.0,21.0,14,29.91,10.0,WSW,10.4,19.6,N/A,,Clear,240,2013-04-21 20:53:00
4:53 PM,75.0,21.0,13,29.88,10.0,South,10.4,26.5,N/A,,Clear,190,2013-04-21 21:53:00
5:53 PM,73.9,19.0,13,29.87,10.0,South,9.2,19.6,N/A,,Scattered Clouds,190,2013-04-21 22:53:00
6:53 PM,73.9,17.1,12,29.87,10.0,South,11.5,-,N/A,,Clear,170,2013-04-21 23:53:00
7:53 PM,71.1,18.0,13,29.86,10.0,SSE,9.2,-,N/A,,Clear,160,2013-04-22 00:53:00
8:53 PM,64.9,28.0,25,29.86,10.0,SE,12.7,-,N/A,,Clear,130,2013-04-22 01:53:00
9:53 PM,62.1,27.0,26,29.84,10.0,SE,16.1,-,N/A,,Clear,140,2013-04-22 02:53:00
10:53 PM,59.0,30.9,35,29.86,10.0,SSE,16.1,-,N/A,,Clear,150,2013-04-22 03:53:00
11:53 PM,55.9,33.1,42,29.87,10.0,SE,11.5,-,N/A,,Clear,140,2013-04-22 04:53:00